Hourly Weather Kahib

Today, 11 May, Tuesday

Time Temperature Precipitation Wind Pressure Humidity
00:00 -3°C° 0 mm 2 mps 632 mmHg 83%
01:00 -3°C° 0 mm 2 mps 631 mmHg 83%
02:00 -4°C° 0 mm 3 mps 631 mmHg 82%
03:00 -5°C° 0 mm 3 mps 631 mmHg 81%
04:00 -4°C° 0 mm 3 mps 631 mmHg 80%
05:00 -2°C° 0 mm 2 mps 631 mmHg 79%
06:00 -1°C° 0 mm 2 mps 631 mmHg 78%
07:00 +2°C° 0 mm 2 mps 630 mmHg 77%
08:00 +4°C° 0 mm 2 mps 630 mmHg 77%
09:00 +6°C° 0 mm 2 mps 630 mmHg 76%
10:00 +7°C° 0 mm 2 mps 630 mmHg 74%
11:00 +9°C° 0 mm 3 mps 630 mmHg 72%
12:00 +10°C° 0 mm 3 mps 630 mmHg 70%
13:00 +11°C° 0 mm 3 mps 630 mmHg 67%
14:00 +12°C° 0 mm 3 mps 630 mmHg 65%
15:00 +13°C° 0 mm 3 mps 630 mmHg 63%
16:00 +12°C° 0 mm 3 mps 630 mmHg 68%
17:00 +11°C° 0 mm 3 mps 630 mmHg 74%
18:00 +10°C° 0 mm 2 mps 630 mmHg 79%
19:00 +9°C° 0 mm 2 mps 630 mmHg 82%
20:00 +7°C° 0 mm 2 mps 630 mmHg 84%
21:00 +6°C° 0 mm 2 mps 630 mmHg 86%
22:00 +6°C° 0 mm 2 mps 630 mmHg 85%
23:00 +6°C° 0 mm 2 mps 630 mmHg 83%

Tomorrow, 12 May, Wednesday

Time Temperature Precipitation Wind Pressure Humidity
00:00 +6°C° 0 mm 2 mps 629 mmHg 81%
01:00 +5°C° 0 mm 3 mps 629 mmHg 80%
02:00 +5°C° 0 mm 3 mps 630 mmHg 80%
03:00 +5°C° 0 mm 3 mps 630 mmHg 79%
04:00 +7°C° 0 mm 3 mps 630 mmHg 77%
05:00 +8°C° 0 mm 3 mps 630 mmHg 75%
06:00 +9°C° 0 mm 2 mps 630 mmHg 73%
07:00 +12°C° 0 mm 2 mps 631 mmHg 66%
08:00 +14°C° 0 mm 2 mps 631 mmHg 58%
09:00 +16°C° 0 mm 2 mps 632 mmHg 51%
10:00 +17°C° 0 mm 2 mps 632 mmHg 47%
11:00 +18°C° 0 mm 2 mps 632 mmHg 43%
12:00 +19°C° 0 mm 3 mps 633 mmHg 39%
13:00 +19°C° 0 mm 3 mps 633 mmHg 40%
14:00 +19°C° 0 mm 2 mps 633 mmHg 40%
15:00 +19°C° 0 mm 2 mps 633 mmHg 41%
16:00 +18°C° 0 mm 2 mps 633 mmHg 48%
17:00 +17°C° 0 mm 2 mps 633 mmHg 54%
18:00 +16°C° 0 mm 2 mps 633 mmHg 61%
19:00 +14°C° 0 mm 2 mps 633 mmHg 61%
20:00 +13°C° 0 mm 2 mps 633 mmHg 61%
21:00 +10°C° 0 mm 2 mps 633 mmHg 61%
22:00 +10°C° 0 mm 2 mps 633 mmHg 59%
23:00 +10°C° 0 mm 2 mps 633 mmHg 58%

Day after tomorrow, 13 May, Thursday

Time Temperature Precipitation Wind Pressure Humidity
00:00 +10°C° 0 mm 3 mps 632 mmHg 56%
01:00 +10°C° 0 mm 3 mps 632 mmHg 57%
02:00 +9°C° 0 mm 3 mps 632 mmHg 57%
03:00 +9°C° 0 mm 3 mps 632 mmHg 58%
04:00 +10°C° 0 mm 3 mps 633 mmHg 58%
05:00 +11°C° 0 mm 3 mps 633 mmHg 58%
06:00 +12°C° 0 mm 3 mps 633 mmHg 59%
07:00 +15°C° 0 mm 2 mps 634 mmHg 51%
08:00 +18°C° 0 mm 2 mps 634 mmHg 42%
09:00 +21°C° 0 mm 1 mps 635 mmHg 34%
10:00 +21°C° 0 mm 2 mps 635 mmHg 32%
11:00 +23°C° 0 mm 2 mps 635 mmHg 29%
12:00 +24°C° 0 mm 2 mps 635 mmHg 27%
13:00 +24°C° 0 mm 2 mps 635 mmHg 28%
14:00 +24°C° 0 mm 2 mps 635 mmHg 28%
15:00 +24°C° 0 mm 2 mps 635 mmHg 28%
16:00 +23°C° 0 mm 2 mps 635 mmHg 37%
17:00 +22°C° 0 mm 1 mps 635 mmHg 46%
18:00 +21°C° 0 mm 1 mps 635 mmHg 54%
19:00 +18°C° 0 mm 2 mps 635 mmHg 56%
20:00 +16°C° 0 mm 2 mps 635 mmHg 57%
21:00 +15°C° 0 mm 2 mps 635 mmHg 59%
22:00 +13°C° 0 mm 3 mps 635 mmHg 59%
23:00 +12°C° 0 mm 3 mps 634 mmHg 59%

14 May, Friday

Time Temperature Precipitation Wind Pressure Humidity
00:00 +12°C° 0 mm 3 mps 634 mmHg 60%
01:00 +12°C° 0 mm 3 mps 634 mmHg 57%
02:00 +11°C° 0 mm 3 mps 634 mmHg 54%
03:00 +11°C° 0 mm 3 mps 634 mmHg 50%
04:00 +12°C° 0 mm 3 mps 634 mmHg 50%
05:00 +12°C° 0 mm 3 mps 635 mmHg 50%
06:00 +14°C° 0 mm 2 mps 635 mmHg 50%
07:00 +17°C° 0 mm 2 mps 635 mmHg 44%
08:00 +20°C° 0 mm 1 mps 636 mmHg 37%
09:00 +22°C° 0 mm 1 mps 636 mmHg 31%
10:00 +23°C° 0 mm 1 mps 636 mmHg 30%
11:00 +24°C° 0 mm 1 mps 636 mmHg 30%
12:00 +25°C° 0 mm 2 mps 636 mmHg 29%
13:00 +25°C° 0 mm 2 mps 636 mmHg 31%
14:00 +24°C° 0 mm 2 mps 636 mmHg 33%
15:00 +24°C° 0 mm 2 mps 636 mmHg 35%
16:00 +23°C° 0 mm 2 mps 636 mmHg 41%
17:00 +21°C° 0 mm 2 mps 635 mmHg 47%
18:00 +20°C° 0 mm 2 mps 635 mmHg 53%
19:00 +19°C° 0.2 mm 2 mps 635 mmHg 61%
20:00 +17°C° 0.2 mm 2 mps 635 mmHg 68%
21:00 +14°C° 0.2 mm 3 mps 635 mmHg 75%
22:00 +13°C° 0.1 mm 3 mps 635 mmHg 73%
23:00 +13°C° 0.1 mm 3 mps 635 mmHg 72%

15 May, Saturday

Time Temperature Precipitation Wind Pressure Humidity
00:00 +12°C° 0.1 mm 3 mps 634 mmHg 71%
01:00 +12°C° 0 mm 3 mps 634 mmHg 74%
02:00 +12°C° 0 mm 3 mps 634 mmHg 76%
03:00 +11°C° 0 mm 3 mps 634 mmHg 79%
04:00 +12°C° 0 mm 3 mps 634 mmHg 77%
05:00 +14°C° 0 mm 2 mps 634 mmHg 75%
06:00 +14°C° 0 mm 2 mps 634 mmHg 74%
07:00 +16°C° 0 mm 2 mps 635 mmHg 63%
08:00 +20°C° 0 mm 1 mps 635 mmHg 52%
09:00 +22°C° 0 mm 1 mps 636 mmHg 41%
10:00 +23°C° 0 mm 1 mps 636 mmHg 40%
11:00 +23°C° 0 mm 2 mps 636 mmHg 38%
12:00 +24°C° 0 mm 2 mps 636 mmHg 37%
13:00 +24°C° 0.3 mm 2 mps 636 mmHg 41%
14:00 +23°C° 0.3 mm 2 mps 635 mmHg 45%
15:00 +21°C° 0.3 mm 2 mps 635 mmHg 50%
16:00 +19°C° 1.4 mm 2 mps 635 mmHg 60%
17:00 +18°C° 1.4 mm 2 mps 635 mmHg 69%
18:00 +16°C° 1.4 mm 2 mps 635 mmHg 79%
19:00 +15°C° 0.2 mm 2 mps 635 mmHg 79%
20:00 +14°C° 0.2 mm 2 mps 635 mmHg 78%
21:00 +14°C° 0.2 mm 2 mps 635 mmHg 77%
22:00 +14°C° 0 mm 2 mps 635 mmHg 76%
23:00 +13°C° 0 mm 2 mps 635 mmHg 74%

16 May, Sunday

Time Temperature Precipitation Wind Pressure Humidity
00:00 +13°C° 0 mm 1 mps 634 mmHg 72%
01:00 +13°C° 0 mm 2 mps 634 mmHg 72%
02:00 +13°C° 0 mm 2 mps 634 mmHg 73%
03:00 +12°C° 0 mm 2 mps 634 mmHg 74%
04:00 +13°C° 0 mm 2 mps 634 mmHg 73%
05:00 +13°C° 0 mm 1 mps 634 mmHg 72%
06:00 +14°C° 0 mm 1 mps 634 mmHg 71%
07:00 +16°C° 0 mm 1 mps 635 mmHg 64%
08:00 +19°C° 0 mm 1 mps 635 mmHg 56%
09:00 +21°C° 0 mm 1 mps 635 mmHg 49%
10:00 +21°C° 0 mm 2 mps 635 mmHg 46%
11:00 +23°C° 0 mm 2 mps 635 mmHg 43%
12:00 +24°C° 0 mm 2 mps 635 mmHg 41%
13:00 +23°C° 0 mm 2 mps 635 mmHg 42%
14:00 +23°C° 0 mm 2 mps 635 mmHg 44%
15:00 +23°C° 0 mm 2 mps 634 mmHg 46%
16:00 +21°C° 0 mm 2 mps 634 mmHg 50%
17:00 +21°C° 0 mm 2 mps 634 mmHg 55%
18:00 +20°C° 0 mm 2 mps 634 mmHg 59%
19:00 +18°C° 0 mm 2 mps 634 mmHg 63%
20:00 +16°C° 0 mm 2 mps 633 mmHg 66%
21:00 +13°C° 0 mm 3 mps 633 mmHg 70%
22:00 +13°C° 0 mm 3 mps 633 mmHg 67%
23:00 +12°C° 0 mm 3 mps 633 mmHg 65%
Show more

We Need Your Consent

Meteoprog and our Service Providers may store and access personal data such as cookies, device identifiers or other similar technologies on your device and process such data to personalise content and ads, as well as provide social media features and to analyse the traffic.

  • Store and/or access information on your device

    Cookies, device identifiers or other information can be stored or accessed on your device for the purposes indicated above.

  • Personalised ads and content, ad and content measurement, audience insights, and products development

    Ads and content can be personalised based on a profile. More data can be added to better personalise ads and content. Ad and content performance can be measured. Insights about the audience who saw the ads and content can be derived. Such data can be used to develop or improve user’s experience, systems and software.

By clicking ‘I Agree’ you will allow the use of indicated cookies, device identifiers, web beacons or other similar technologies. Your settings can be changed in the browser on your device.

For certain purposes, legitimate interests may be relied on, rather than consent. You can read more about this in our Privacy and Cookie Policy.